| time (UTC) | temp F | wind direction | speed knots | gust knots | rain 1hr in | rain 24hr in | rain mn in | humidity % | barometer mb |
| 20260504214607 | 75 | 179 | 9.6 | 29.5 | 0.00 | 0.01 | 0.01 | 48 | 1002.9 |
| 20260504213148 | 75 | 181 | 10.4 | 24.3 | 0.00 | 0.01 | 0.01 | 49 | 1002.8 |
| 20260504211607 | 75 | 194 | 14.8 | 24.3 | 0.00 | 0.01 | 0.01 | 48 | 1002.6 |
| 20260504210058 | 76 | 200 | 9.6 | 20.9 | 0.00 | 0.01 | 0.01 | 47 | 1002.8 |
| 20260504204558 | 76 | 188 | 14.8 | 28.7 | 0.00 | 0.01 | 0.01 | 47 | 1002.6 |
| 20260504203120 | 76 | 197 | 14.8 | 26.9 | 0.00 | 0.01 | 0.01 | 48 | 1002.9 |
| 20260504201559 | 76 | 248 | 13.0 | 27.8 | 0.00 | 0.01 | 0.01 | 48 | 1003.0 |
| 20260504194608 | 75 | 206 | 13.0 | 46.9 | 0.00 | 0.02 | 0.01 | 48 | 1003.7 |
| 20260504193111 | 74 | 193 | 12.2 | 21.7 | 0.00 | 0.02 | 0.01 | 50 | 1003.6 |
| 20260504191558 | 75 | 209 | 8.7 | 28.7 | 0.00 | 0.02 | 0.01 | 49 | 1003.6 |
| 20260504190117 | 75 | 194 | 13.0 | 25.2 | 0.00 | 0.02 | 0.01 | 50 | 1003.7 |
| 20260504184607 | 75 | 192 | 12.2 | 25.2 | 0.00 | 0.03 | 0.01 | 52 | 1003.8 |
| 20260504183101 | 75 | 208 | 11.3 | 21.7 | 0.01 | 0.03 | 0.01 | 55 | 1004.0 |
| 20260504181608 | 74 | 190 | 8.7 | 20.9 | 0.01 | 0.03 | 0.01 | 55 | 1003.9 |
| 20260504180103 | 73 | 179 | 10.4 | 19.1 | 0.01 | 0.03 | 0.01 | 56 | 1004.1 |
| 20260504174612 | 73 | 174 | 11.3 | 24.3 | 0.01 | 0.04 | 0.01 | 57 | 1004.4 |
| 20260504173120 | 72 | 220 | 9.6 | 20.9 | 0.00 | 0.03 | 0.00 | 56 | 1004.7 |
| 20260504171604 | 71 | 0 | 3.5 | 18.2 | 0.00 | 0.03 | 0.00 | 59 | 1005.1 |
| 20260504160109 | 68 | 0 | 0.0 | 0.0 | 0.00 | 0.06 | 0.00 | 62 | 1005.9 |
| 20260504150109 | 64 | 0 | 0.0 | 0.0 | 0.00 | 0.09 | 0.00 | 65 | 1006.3 |
| 20260504140112 | 60 | 201 | 4.3 | 12.2 | 0.00 | 0.13 | 0.00 | 71 | 1006.6 |
| 20260504110119 | 50 | 183 | 4.3 | 15.6 | 0.00 | 0.37 | 0.00 | 80 | 1007.2 |
| 20260504100105 | 49 | 180 | 3.5 | 8.7 | 0.00 | 0.38 | 0.00 | 81 | 1007.1 |
| 20260504090121 | 49 | 142 | 5.2 | 9.6 | 0.00 | 0.38 | 0.00 | 83 | 1007.0 |
| 20260504081558 | 48 | 165 | 3.5 | 7.8 | 0.00 | 0.38 | 0.00 | 85 | 1007.7 |
| 20260504044606 | 47 | 150 | 2.6 | 7.0 | 0.00 | 0.38 | 0.00 | 86 | 1009.6 |
| 20260504043101 | 47 | 155 | 3.5 | 7.8 | 0.00 | 0.38 | 0.00 | 86 | 1009.7 |
| 20260504041602 | 47 | 155 | 4.3 | 7.0 | 0.00 | 0.38 | 0.00 | 85 | 1009.8 |
| 20260504040107 | 48 | 150 | 2.6 | 6.1 | 0.00 | 0.38 | 0.00 | 85 | 1009.9 |
| 20260504034605 | 48 | 159 | 4.3 | 9.6 | 0.00 | 0.38 | 0.38 | 84 | 1010.1 |
| 20260504033116 | 48 | 144 | 4.3 | 10.4 | 0.00 | 0.38 | 0.38 | 84 | 1010.3 |
| 20260504031608 | 48 | 144 | 3.5 | 7.8 | 0.00 | 0.38 | 0.38 | 85 | 1010.3 |
| 20260504030059 | 48 | 135 | 3.5 | 7.0 | 0.00 | 0.38 | 0.38 | 85 | 1010.5 |
| 20260504024607 | 48 | 138 | 2.6 | 7.8 | 0.00 | 0.39 | 0.38 | 85 | 1010.5 |
| 20260504023059 | 48 | 157 | 5.2 | 10.4 | 0.00 | 0.39 | 0.38 | 85 | 1010.7 |
| 20260504021602 | 48 | 146 | 5.2 | 11.3 | 0.00 | 0.39 | 0.38 | 84 | 1010.8 |
| 20260504014558 | 49 | 151 | 6.1 | 13.9 | 0.00 | 0.39 | 0.38 | 85 | 1010.7 |
| 20260504013058 | 49 | 153 | 5.2 | 10.4 | 0.00 | 0.39 | 0.38 | 85 | 1010.8 |
| 20260504011558 | 49 | 146 | 6.1 | 12.2 | 0.00 | 0.39 | 0.38 | 85 | 1010.9 |
| 20260504010109 | 49 | 142 | 6.1 | 12.2 | 0.00 | 0.39 | 0.38 | 85 | 1010.9 |
| 20260504004603 | 49 | 150 | 7.0 | 11.3 | 0.00 | 0.39 | 0.38 | 85 | 1011.0 |
| 20260504003100 | 49 | 155 | 4.3 | 11.3 | 0.00 | 0.39 | 0.38 | 84 | 1011.2 |
| 20260504001614 | 49 | 144 | 6.1 | 10.4 | 0.00 | 0.39 | 0.38 | 84 | 1011.3 |
| 20260504000059 | 49 | 146 | 7.0 | 10.4 | 0.00 | 0.39 | 0.38 | 83 | 1011.3 |
| 20260503234601 | 49 | 145 | 7.8 | 17.4 | 0.00 | 0.40 | 0.38 | 83 | 1011.4 |
| 20260503233059 | 49 | 150 | 7.0 | 12.2 | 0.00 | 0.40 | 0.38 | 83 | 1011.5 |
| 20260503231558 | 49 | 132 | 6.1 | 12.2 | 0.00 | 0.40 | 0.38 | 82 | 1011.6 |
| 20260503230101 | 49 | 143 | 6.1 | 13.0 | 0.00 | 0.40 | 0.38 | 82 | 1011.8 |
| 20260503224557 | 49 | 136 | 5.2 | 9.6 | 0.00 | 0.40 | 0.38 | 83 | 1011.8 |
| 20260503223100 | 49 | 133 | 7.0 | 15.6 | 0.00 | 0.40 | 0.38 | 82 | 1012.0 |
| 20260503221601 | 49 | 135 | 5.2 | 9.6 | 0.00 | 0.40 | 0.38 | 83 | 1012.3 |
| 20260503220112 | 49 | 144 | 6.1 | 12.2 | 0.00 | 0.40 | 0.38 | 82 | 1012.3 |